Home   Weather   The Settlement   Past weeks

Flag for Christmas Island Past Weather in The Settlement, Christmas Island — Yesterday and Last 2 Weeks

Now
73 °F

Mostly cloudy.


Feels Like: 72 °F
Forecast: 75 / 78 °F
Wind: 17 mph from Southeast

Location: Christmas Island Aerodrome

Current Time: Jul 25, 2017 at 4:08:00 am

Latest Report: Jul 25, 2017 at 3:30 am


Visibility: N/A

Pressure: 29.95 "Hg

Humidity: 89%

Dew Point: 70 °F

Location of The SettlementLocation

Past Weather in The Settlement — Graph

°F

The Settlement Temperature Yesterday

Maximum temperature yesterday: 75 °F (at 1:30 pm)
Minimum temperature yesterday: 72 °F (at 12:00 am)
Average temperature yesterday: 73 °F

High & Low Weather Summary for the Past Weeks

 TemperatureHumidityPressure
High79 °F (Jul 12, 1:00 pm)100% (Jul 21, 12:30 am)30.04 "Hg (Jul 21, 12:30 am)
Low70 °F (Jul 17, 2:03 pm)65% (Jul 12, 10:30 am)29.89 "Hg (Jul 17, 2:30 pm)
Average75 °F84%29.97 "Hg
* Reported Jul 10 3:00 am — Jul 25 3:00 am, The Settlement. Weather by CustomWeather, © 2017

Note: Actual official high and low records may vary slightly from our data, if they occured in-between our weather recording intervals... More about our weather records

Advertising

The Settlement Weather History for the Previous 24 Hours

Scroll right to see more
 ConditionsComfort  
Time TempWeatherWind HumidityBarometerVisibility
3:00 am
Tue, Jul 25
73 °FPartly cloudy.18 mph89%29.95 "HgN/A
2:30 am73 °FMostly cloudy.15 mph94%29.95 "HgN/A
2:00 am73 °FMostly cloudy.16 mph89%29.95 "HgN/A
1:30 am73 °FMostly cloudy.17 mph89%29.98 "HgN/A
1:00 am73 °FPassing clouds.17 mph89%29.95 "HgN/A
12:30 am73 °FOvercast.17 mph89%29.98 "HgN/A
12:00 am73 °FDrizzle. Overcast.17 mph89%29.98 "Hg6 mi
11:30 pm
Mon, Jul 24
73 °FMostly cloudy.16 mph89%29.98 "HgN/A
11:12 pm73 °FOvercast.17 mph89%29.98 "HgN/A
11:00 pm73 °FOvercast.17 mph89%29.98 "HgN/A
10:30 pm73 °FMostly cloudy.16 mph89%29.98 "HgN/A
10:00 pm73 °FOvercast.17 mph89%29.95 "HgN/A
9:30 pm73 °FMostly cloudy.17 mph89%29.95 "HgN/A
9:16 pm73 °FOvercast.18 mph89%29.95 "HgN/A
9:00 pm73 °FOvercast.18 mph89%29.95 "HgN/A
8:30 pm73 °FMostly cloudy.17 mph89%29.95 "HgN/A
8:00 pm72 °FMostly cloudy.17 mph94%29.95 "HgN/A
7:40 pm72 °FOvercast.15 mph94%29.95 "HgN/A
7:06 pm72 °FSprinkles. Mostly cloudy.18 mph94%29.95 "Hg0 mi
7:05 pm72 °FSprinkles. Mostly cloudy.18 mph94%29.95 "Hg0 mi
6:38 pm72 °FMostly cloudy.17 mph94%29.95 "HgN/A
6:01 pm72 °FRain. Low clouds.18 mph94%29.92 "Hg0 mi
5:35 pm72 °FLight rain. Mostly cloudy.17 mph100%29.92 "Hg0 mi
5:26 pm73 °FLight rain. Mostly cloudy.17 mph94%29.92 "Hg1 mi
5:00 pm75 °FOvercast.20 mph78%29.92 "HgN/A
4:36 pm75 °FMostly cloudy.16 mph83%29.92 "HgN/A
4:00 pm75 °FOvercast.16 mph83%29.92 "HgN/A
3:41 pm73 °FMostly cloudy.16 mph89%29.92 "HgN/A
3:00 pm73 °FOvercast.16 mph89%29.92 "HgN/A
2:30 pm73 °FMostly cloudy.16 mph89%29.92 "HgN/A
2:00 pm75 °FMostly cloudy.16 mph83%29.92 "HgN/A
1:30 pm75 °FOvercast.14 mph83%29.95 "HgN/A
1:00 pm73 °FOvercast.15 mph89%29.95 "HgN/A
12:58 pm73 °FOvercast.15 mph89%29.95 "HgN/A
12:30 pm73 °FMostly cloudy.16 mph89%29.98 "HgN/A
12:00 pm73 °FOvercast.14 mph89%29.98 "HgN/A
11:30 am73 °FMostly cloudy.16 mph89%29.98 "HgN/A
11:00 am73 °FCloudy.15 mph89%29.98 "HgN/A
10:33 am72 °FLight rain. Low clouds.18 mph94%30.01 "Hg4 mi
10:00 am72 °FCloudy.14 mph94%30.01 "HgN/A
9:30 am72 °FMostly cloudy.17 mph100%30.01 "Hg3 mi
9:13 am72 °FSprinkles. Low clouds.15 mph94%30.01 "Hg1 mi
9:00 am72 °FSprinkles. Low clouds.20 mph94%30.01 "Hg0 mi
8:44 am72 °FSprinkles. Mostly cloudy.17 mph94%30.01 "Hg0 mi
8:11 am72 °FSprinkles. Cloudy.18 mph94%30.01 "Hg1 mi
7:00 am72 °FSprinkles. Mostly cloudy.17 mph94%29.98 "Hg4 mi
6:30 am72 °FSprinkles. Mostly cloudy.16 mph94%29.98 "Hg1 mi
6:00 am72 °FSprinkles. Overcast.14 mph94%29.95 "Hg4 mi
5:26 am72 °FSprinkles. Mostly cloudy.16 mph94%29.95 "Hg4 mi
5:00 am72 °FSprinkles. Mostly cloudy.15 mph94%29.95 "Hg3 mi
4:30 am72 °FSprinkles. Mostly cloudy.17 mph94%29.95 "Hg2 mi
4:03 am72 °FSprinkles. Overcast.15 mph94%29.95 "Hg2 mi
Weather by CustomWeather, © 2017

See weather overviewHow to use our weather pages